Wetterdaten: Dienstag, 20.09.2011
Datum Zeit Temp. Auen Feucht Auen Luftdruck Regen Richtung Richtung Windben
20.09.2011 00:00 6,4 C 99 % 1089,9 hPa 0,0 mm W 265 3,6 km/h (1 Bft)
20.09.2011 00:05 6,4 C 99 % 1090,0 hPa 0,0 mm W 270 3,6 km/h (1 Bft)
20.09.2011 00:10 6,5 C 99 % 1090,0 hPa 0,3 mm W 270 3,6 km/h (1 Bft)
20.09.2011 00:15 6,5 C 99 % 1090,2 hPa 0,0 mm W 267 3,6 km/h (1 Bft)
20.09.2011 00:20 6,6 C 99 % 1090,2 hPa 0,0 mm W-SW 248 3,6 km/h (1 Bft)
20.09.2011 00:25 6,6 C 99 % 1090,4 hPa 0,0 mm W 260 3,6 km/h (1 Bft)
20.09.2011 00:30 6,6 C 99 % 1090,5 hPa 0,0 mm W 270 3,6 km/h (1 Bft)
20.09.2011 00:35 6,6 C 99 % 1090,3 hPa 0,0 mm W 270 3,6 km/h (1 Bft)
20.09.2011 00:40 6,6 C 99 % 1090,6 hPa 0,0 mm W 270 3,6 km/h (1 Bft)
20.09.2011 00:45 6,6 C 99 % 1090,7 hPa 0,0 mm W 278 3,6 km/h (1 Bft)
20.09.2011 00:50 6,6 C 99 % 1090,8 hPa 0,3 mm W 279 2,5 km/h (1 Bft)
20.09.2011 00:55 6,6 C 99 % 1090,7 hPa 0,0 mm W 270 2,5 km/h (1 Bft)
20.09.2011 01:00 6,7 C 99 % 1090,7 hPa 0,0 mm W 270 2,5 km/h (1 Bft)
20.09.2011 01:05 6,7 C 99 % 1090,8 hPa 0,0 mm W 270 1,1 km/h (1 Bft)
20.09.2011 01:10 6,7 C 99 % 1090,6 hPa 0,0 mm W 270 2,5 km/h (1 Bft)
20.09.2011 01:15 6,7 C 99 % 1090,8 hPa 0,0 mm W 270 2,5 km/h (1 Bft)
20.09.2011 01:20 6,8 C 99 % 1090,9 hPa 0,3 mm W 270 2,5 km/h (1 Bft)
20.09.2011 01:25 6,8 C 99 % 1090,7 hPa 0,0 mm W 270 2,5 km/h (1 Bft)
20.09.2011 01:30 6,8 C 99 % 1090,7 hPa 0,0 mm W 260 3,6 km/h (1 Bft)
20.09.2011 01:35 6,8 C 99 % 1090,9 hPa 0,0 mm W 268 5,0 km/h (1 Bft)
20.09.2011 01:40 6,8 C 99 % 1090,7 hPa 0,0 mm W 273 5,0 km/h (1 Bft)
20.09.2011 01:45 6,8 C 99 % 1090,7 hPa 0,3 mm W-SW 255 5,0 km/h (1 Bft)
20.09.2011 01:50 6,8 C 99 % 1090,6 hPa 0,0 mm W-SW 248 5,0 km/h (1 Bft)
20.09.2011 01:55 6,8 C 99 % 1091,0 hPa 0,0 mm W-SW 243 3,6 km/h (1 Bft)
20.09.2011 02:00 6,8 C 99 % 1091,1 hPa 0,0 mm SW 228 3,6 km/h (1 Bft)
20.09.2011 02:05 6,8 C 99 % 1091,1 hPa 0,0 mm SW 234 2,5 km/h (1 Bft)
20.09.2011 02:10 6,8 C 99 % 1091,3 hPa 0,0 mm S 181 2,5 km/h (1 Bft)
20.09.2011 02:15 6,8 C 99 % 1091,4 hPa 0,0 mm S 181 3,6 km/h (1 Bft)
20.09.2011 02:20 6,8 C 99 % 1091,4 hPa 0,0 mm S 181 3,6 km/h (1 Bft)
20.09.2011 02:25 6,8 C 99 % 1091,4 hPa 0,0 mm S 181 2,5 km/h (1 Bft)
20.09.2011 02:30 6,9 C 99 % 1091,4 hPa 0,0 mm SW 225 2,5 km/h (1 Bft)
20.09.2011 02:35 6,9 C 99 % 1091,3 hPa 0,0 mm W-SW 245 2,5 km/h (1 Bft)
20.09.2011 02:40 6,9 C 99 % 1091,1 hPa 0,0 mm W 270 3,6 km/h (1 Bft)
20.09.2011 02:45 6,9 C 99 % 1091,2 hPa 0,0 mm W 272 5,0 km/h (1 Bft)
20.09.2011 02:50 6,9 C 99 % 1091,3 hPa 0,0 mm W 266 5,0 km/h (1 Bft)
20.09.2011 02:55 6,9 C 99 % 1091,2 hPa 0,0 mm W-SW 258 3,6 km/h (1 Bft)
20.09.2011 03:00 6,9 C 99 % 1091,5 hPa 0,0 mm W 264 3,6 km/h (1 Bft)
20.09.2011 03:05 6,9 C 99 % 1091,7 hPa 0,0 mm NW 314 1,1 km/h (1 Bft)
20.09.2011 03:10 7,0 C 99 % 1091,8 hPa 0,0 mm W-NW 283 2,5 km/h (1 Bft)
20.09.2011 03:15 7,0 C 99 % 1091,7 hPa 0,0 mm W-SW 248 3,6 km/h (1 Bft)
20.09.2011 03:20 7,0 C 99 % 1091,8 hPa 0,0 mm W-SW 243 3,6 km/h (1 Bft)
20.09.2011 03:25 7,1 C 99 % 1091,9 hPa 0,0 mm W-SW 247 5,0 km/h (1 Bft)
20.09.2011 03:30 7,1 C 99 % 1091,8 hPa 0,0 mm W-SW 255 5,0 km/h (1 Bft)
20.09.2011 03:35 7,1 C 99 % 1091,8 hPa 0,0 mm W 267 3,6 km/h (1 Bft)
20.09.2011 03:40 7,2 C 99 % 1091,5 hPa 0,0 mm W 268 5,0 km/h (1 Bft)
20.09.2011 03:45 7,2 C 99 % 1091,6 hPa 0,0 mm W 264 5,0 km/h (1 Bft)
20.09.2011 03:50 7,2 C 99 % 1091,9 hPa 0,3 mm W 259 3,6 km/h (1 Bft)
20.09.2011 03:55 7,2 C 99 % 1091,8 hPa 0,0 mm W 269 3,6 km/h (1 Bft)
20.09.2011 04:00 7,2 C 99 % 1091,6 hPa 0,0 mm W 277 3,6 km/h (1 Bft)
20.09.2011 04:05 7,2 C 99 % 1091,6 hPa 0,0 mm W 275 3,6 km/h (1 Bft)
20.09.2011 04:10 7,2 C 99 % 1092,0 hPa 0,0 mm W 270 2,5 km/h (1 Bft)
20.09.2011 04:15 7,3 C 99 % 1091,6 hPa 0,0 mm W 270 3,6 km/h (1 Bft)
20.09.2011 04:20 7,3 C 99 % 1091,7 hPa 0,0 mm W 261 3,6 km/h (1 Bft)
20.09.2011 04:25 7,3 C 99 % 1091,6 hPa 0,0 mm W-SW 246 3,6 km/h (1 Bft)
20.09.2011 04:30 7,3 C 99 % 1091,8 hPa 0,0 mm W-SW 248 5,0 km/h (1 Bft)
20.09.2011 04:35 7,3 C 99 % 1091,9 hPa 0,0 mm W-SW 248 5,0 km/h (1 Bft)
20.09.2011 04:40 7,4 C 99 % 1092,0 hPa 0,0 mm W-SW 241 3,6 km/h (1 Bft)
20.09.2011 04:45 7,4 C 99 % 1092,0 hPa 0,3 mm W-SW 244 3,6 km/h (1 Bft)
20.09.2011 04:50 7,4 C 99 % 1092,1 hPa 0,0 mm SW 232 3,6 km/h (1 Bft)
20.09.2011 04:55 7,4 C 99 % 1092,2 hPa 0,0 mm SW 231 2,5 km/h (1 Bft)
20.09.2011 05:00 7,4 C 99 % 1092,3 hPa 0,0 mm W 279 2,5 km/h (1 Bft)
20.09.2011 05:05 7,4 C 99 % 1092,1 hPa 0,0 mm W 275 2,5 km/h (1 Bft)
20.09.2011 05:10 7,5 C 99 % 1092,1 hPa 0,3 mm W 263 3,6 km/h (1 Bft)
20.09.2011 05:15 7,5 C 99 % 1092,1 hPa 0,0 mm W-SW 254 3,6 km/h (1 Bft)
20.09.2011 05:20 7,5 C 99 % 1092,2 hPa 0,0 mm W-SW 241 2,5 km/h (1 Bft)
20.09.2011 05:25 7,5 C 99 % 1092,2 hPa 0,0 mm S-SW 213 2,5 km/h (1 Bft)
20.09.2011 05:30 7,5 C 99 % 1092,4 hPa 0,3 mm SW 226 2,5 km/h (1 Bft)
20.09.2011 05:35 7,5 C 99 % 1092,1 hPa 0,0 mm NW 314 1,1 km/h (1 Bft)
20.09.2011 05:40 7,5 C 99 % 1092,2 hPa 0,0 mm NW 314 2,5 km/h (1 Bft)
20.09.2011 05:45 7,5 C 99 % 1092,4 hPa 0,0 mm NW 314 2,5 km/h (1 Bft)
20.09.2011 05:50 7,5 C 99 % 1092,3 hPa 0,0 mm W-NW 285 2,5 km/h (1 Bft)
20.09.2011 05:55 7,5 C 99 % 1092,4 hPa 0,0 mm W 272 3,6 km/h (1 Bft)
20.09.2011 06:00 7,5 C 99 % 1092,0 hPa 0,0 mm W 270 3,6 km/h (1 Bft)
20.09.2011 06:05 7,5 C 99 % 1092,3 hPa 0,0 mm W 270 3,6 km/h (1 Bft)
20.09.2011 06:10 7,6 C 99 % 1092,4 hPa 0,3 mm W 265 5,0 km/h (1 Bft)
20.09.2011 06:15 7,6 C 99 % 1092,3 hPa 0,0 mm W-SW 256 5,0 km/h (1 Bft)
20.09.2011 06:20 7,6 C 99 % 1092,5 hPa 0,0 mm W 261 5,0 km/h (1 Bft)
20.09.2011 06:25 7,6 C 99 % 1092,4 hPa 0,0 mm W 270 3,6 km/h (1 Bft)
20.09.2011 06:30 7,6 C 99 % 1092,4 hPa 0,3 mm W 270 5,0 km/h (1 Bft)
20.09.2011 06:35 7,6 C 99 % 1092,7 hPa 0,0 mm W 269 5,0 km/h (1 Bft)
20.09.2011 06:40 7,7 C 99 % 1092,7 hPa 0,0 mm W 262 3,6 km/h (1 Bft)
20.09.2011 06:45 7,7 C 99 % 1093,0 hPa 0,0 mm W-SW 257 2,5 km/h (1 Bft)
20.09.2011 06:50 7,7 C 99 % 1093,0 hPa 0,0 mm W 261 3,6 km/h (1 Bft)
20.09.2011 06:55 7,7 C 99 % 1093,0 hPa 0,0 mm W 259 3,6 km/h (1 Bft)
20.09.2011 07:00 7,7 C 99 % 1093,2 hPa 0,0 mm S 188 2,5 km/h (1 Bft)
20.09.2011 07:05 7,7 C 99 % 1093,2 hPa 0,0 mm S 181 2,5 km/h (1 Bft)
20.09.2011 07:10 7,8 C 99 % 1093,2 hPa 0,0 mm N 0 0,0 km/h (0 Bft)
20.09.2011 07:15 7,8 C 99 % 1093,4 hPa 0,3 mm W 281 1,1 km/h (1 Bft)
20.09.2011 07:20 7,9 C 99 % 1093,3 hPa 0,0 mm N 349 2,5 km/h (1 Bft)
20.09.2011 07:25 7,9 C 99 % 1093,4 hPa 0,0 mm N 1 2,5 km/h (1 Bft)
20.09.2011 07:30 7,9 C 99 % 1093,3 hPa 0,0 mm N 1 1,1 km/h (1 Bft)
20.09.2011 07:35 7,9 C 99 % 1093,3 hPa 0,0 mm NW 317 1,1 km/h (1 Bft)
20.09.2011 07:40 7,9 C 99 % 1093,4 hPa 0,0 mm W-NW 283 2,5 km/h (1 Bft)
20.09.2011 07:45 8,0 C 99 % 1093,4 hPa 0,3 mm W 270 2,5 km/h (1 Bft)
20.09.2011 07:50 8,0 C 99 % 1093,4 hPa 0,0 mm W 270 3,6 km/h (1 Bft)
20.09.2011 07:55 8,0 C 99 % 1093,4 hPa 0,3 mm W 260 3,6 km/h (1 Bft)
20.09.2011 08:00 8,1 C 99 % 1093,6 hPa 0,0 mm W-SW 253 3,6 km/h (1 Bft)
20.09.2011 08:05 8,1 C 99 % 1093,7 hPa 0,0 mm W 267 2,5 km/h (1 Bft)
20.09.2011 08:10 8,1 C 99 % 1093,9 hPa 0,0 mm W 270 1,1 km/h (1 Bft)
20.09.2011 08:15 8,1 C 99 % 1093,7 hPa 0,0 mm W 281 2,5 km/h (1 Bft)
20.09.2011 08:20 8,1 C 99 % 1093,8 hPa 0,0 mm W-NW 288 2,5 km/h (1 Bft)
20.09.2011 08:25 8,1 C 99 % 1094,0 hPa 0,0 mm W-NW 289 2,5 km/h (1 Bft)
20.09.2011 08:30 8,2 C 99 % 1094,0 hPa 0,3 mm W 272 2,5 km/h (1 Bft)
20.09.2011 08:35 8,2 C 99 % 1093,8 hPa 0,0 mm W 269 2,5 km/h (1 Bft)
20.09.2011 08:40 8,2 C 99 % 1094,0 hPa 0,0 mm W 270 3,6 km/h (1 Bft)
20.09.2011 08:45 8,2 C 99 % 1094,0 hPa 0,3 mm W 267 5,0 km/h (1 Bft)
20.09.2011 08:50 8,2 C 99 % 1094,3 hPa 0,0 mm W 273 5,0 km/h (1 Bft)
20.09.2011 08:55 8,3 C 99 % 1094,0 hPa 0,0 mm W-NW 301 3,6 km/h (1 Bft)
20.09.2011 09:00 8,3 C 99 % 1094,3 hPa 0,0 mm W-NW 294 3,6 km/h (1 Bft)
20.09.2011 09:05 8,3 C 99 % 1094,3 hPa 0,0 mm W 281 2,5 km/h (1 Bft)
20.09.2011 09:10 8,4 C 99 % 1094,1 hPa 0,0 mm W 270 2,5 km/h (1 Bft)
20.09.2011 09:15 8,4 C 99 % 1094,2 hPa 0,0 mm W 270 2,5 km/h (1 Bft)
20.09.2011 09:20 8,5 C 99 % 1094,1 hPa 0,0 mm W 270 2,5 km/h (1 Bft)
20.09.2011 09:25 8,5 C 99 % 1094,3 hPa 0,0 mm W 270 2,5 km/h (1 Bft)
20.09.2011 09:30 8,6 C 99 % 1094,4 hPa 0,0 mm SW 232 2,5 km/h (1 Bft)
20.09.2011 09:35 8,6 C 99 % 1094,4 hPa 0,3 mm W-SW 247 2,5 km/h (1 Bft)
20.09.2011 09:40 8,6 C 99 % 1094,4 hPa 0,0 mm W 271 2,5 km/h (1 Bft)
20.09.2011 09:45 8,7 C 99 % 1094,6 hPa 0,0 mm W 274 2,5 km/h (1 Bft)
20.09.2011 09:50 8,8 C 99 % 1094,4 hPa 0,3 mm W 276 2,5 km/h (1 Bft)
20.09.2011 09:55 8,8 C 99 % 1094,7 hPa 0,0 mm W 272 2,5 km/h (1 Bft)
20.09.2011 10:00 8,8 C 99 % 1094,6 hPa 0,0 mm W 263 3,6 km/h (1 Bft)
20.09.2011 10:05 8,8 C 99 % 1094,8 hPa 0,0 mm W-SW 245 3,6 km/h (1 Bft)
20.09.2011 10:10 9,0 C 99 % 1094,6 hPa 0,0 mm W-SW 251 3,6 km/h (1 Bft)
20.09.2011 10:15 9,0 C 99 % 1094,6 hPa 0,0 mm W 270 3,6 km/h (1 Bft)
20.09.2011 10:20 9,0 C 99 % 1095,0 hPa 0,0 mm W 267 3,6 km/h (1 Bft)
20.09.2011 10:25 9,0 C 99 % 1094,8 hPa 0,3 mm W-SW 258 3,6 km/h (1 Bft)
20.09.2011 10:30 9,0 C 99 % 1094,8 hPa 0,0 mm W 266 5,0 km/h (1 Bft)
20.09.2011 10:35 9,0 C 99 % 1094,7 hPa 0,0 mm W 270 5,0 km/h (1 Bft)
20.09.2011 10:40 9,1 C 99 % 1094,8 hPa 0,0 mm W-SW 257 3,6 km/h (1 Bft)
20.09.2011 10:45 9,1 C 99 % 1094,9 hPa 0,0 mm W-SW 247 3,6 km/h (1 Bft)
20.09.2011 10:50 9,1 C 99 % 1094,8 hPa 0,0 mm SW 225 2,5 km/h (1 Bft)
20.09.2011 10:55 9,1 C 99 % 1095,0 hPa 0,0 mm W 270 2,5 km/h (1 Bft)
20.09.2011 11:00 9,1 C 99 % 1095,0 hPa 0,0 mm W 270 3,6 km/h (1 Bft)
20.09.2011 11:05 9,1 C 99 % 1095,0 hPa 0,0 mm W 270 3,6 km/h (1 Bft)
20.09.2011 11:10 9,3 C 99 % 1095,0 hPa 0,0 mm W 270 3,6 km/h (1 Bft)
20.09.2011 11:15 9,3 C 99 % 1094,6 hPa 0,0 mm W 273 3,6 km/h (1 Bft)
20.09.2011 11:20 9,3 C 99 % 1094,6 hPa 0,0 mm W 272 7,2 km/h (2 Bft)
20.09.2011 11:25 9,6 C 99 % 1094,5 hPa 0,0 mm W 267 7,2 km/h (2 Bft)
20.09.2011 11:30 9,8 C 99 % 1094,2 hPa 0,0 mm W 263 7,2 km/h (2 Bft)
20.09.2011 11:35 10,0 C 99 % 1094,5 hPa 0,0 mm W-SW 257 7,2 km/h (2 Bft)
20.09.2011 11:40 10,1 C 99 % 1094,3 hPa 0,0 mm W-SW 237 3,6 km/h (1 Bft)
20.09.2011 11:45 10,1 C 99 % 1094,8 hPa 0,0 mm SW 222 5,0 km/h (1 Bft)
20.09.2011 11:50 10,1 C 99 % 1094,5 hPa 0,0 mm W-SW 255 6,1 km/h (2 Bft)
20.09.2011 11:55 10,2 C 99 % 1094,5 hPa 0,0 mm W 259 6,1 km/h (2 Bft)
20.09.2011 12:00 10,3 C 99 % 1094,4 hPa 0,0 mm W-SW 249 7,2 km/h (2 Bft)
20.09.2011 12:05 10,3 C 99 % 1094,5 hPa 0,0 mm W-SW 238 7,2 km/h (2 Bft)
20.09.2011 12:10 10,5 C 99 % 1094,6 hPa 0,0 mm SW 231 6,1 km/h (2 Bft)
20.09.2011 12:15 10,6 C 99 % 1094,7 hPa 0,0 mm W-SW 250 6,1 km/h (2 Bft)
20.09.2011 12:20 10,7 C 99 % 1094,6 hPa 0,0 mm W-SW 250 5,0 km/h (1 Bft)
20.09.2011 12:25 10,8 C 99 % 1094,3 hPa 0,0 mm W-SW 252 6,1 km/h (2 Bft)
20.09.2011 12:30 11,0 C 99 % 1094,3 hPa 0,0 mm W 264 7,2 km/h (2 Bft)
20.09.2011 12:35 11,0 C 99 % 1094,5 hPa 0,0 mm W 263 7,2 km/h (2 Bft)
20.09.2011 12:40 11,0 C 99 % 1094,4 hPa 0,0 mm W 267 7,2 km/h (2 Bft)
20.09.2011 12:45 11,0 C 99 % 1094,3 hPa 0,0 mm W 260 7,2 km/h (2 Bft)
20.09.2011 12:50 11,1 C 99 % 1094,4 hPa 0,0 mm W-SW 258 8,6 km/h (2 Bft)
20.09.2011 12:55 11,3 C 99 % 1094,5 hPa 0,0 mm W 262 8,6 km/h (2 Bft)
20.09.2011 13:00 11,3 C 99 % 1094,4 hPa 0,0 mm W 267 7,2 km/h (2 Bft)
20.09.2011 13:05 11,3 C 99 % 1094,4 hPa 0,0 mm W 270 7,2 km/h (2 Bft)
20.09.2011 13:10 11,3 C 99 % 1094,4 hPa 0,0 mm W 270 5,0 km/h (1 Bft)
20.09.2011 13:15 11,4 C 99 % 1094,4 hPa 0,0 mm W 270 8,6 km/h (2 Bft)
20.09.2011 13:20 11,5 C 99 % 1094,2 hPa 0,0 mm W 270 8,6 km/h (2 Bft)
20.09.2011 13:25 11,6 C 100 % 1094,2 hPa 0,0 mm W-SW 245 8,6 km/h (2 Bft)
20.09.2011 13:30 11,7 C 100 % 1094,1 hPa 0,0 mm SW 233 8,6 km/h (2 Bft)
20.09.2011 13:35 11,8 C 97 % 1094,0 hPa 0,0 mm W-SW 256 9,7 km/h (2 Bft)
20.09.2011 13:40 11,7 C 96 % 1094,3 hPa 0,0 mm W 262 9,7 km/h (2 Bft)
20.09.2011 13:45 11,7 C 96 % 1094,3 hPa 0,0 mm W-SW 253 9,7 km/h (2 Bft)
20.09.2011 13:50 11,6 C 96 % 1094,1 hPa 0,0 mm W-SW 257 9,7 km/h (2 Bft)
20.09.2011 13:55 11,6 C 96 % 1094,2 hPa 0,0 mm W-SW 256 6,1 km/h (2 Bft)
20.09.2011 14:00 11,6 C 96 % 1094,1 hPa 0,0 mm W-SW 245 6,1 km/h (2 Bft)
20.09.2011 14:05 11,6 C 96 % 1094,1 hPa 0,0 mm SW 233 6,1 km/h (2 Bft)
20.09.2011 14:10 11,7 C 96 % 1093,9 hPa 0,0 mm SW 232 7,2 km/h (2 Bft)
20.09.2011 14:15 11,9 C 96 % 1093,8 hPa 0,0 mm W-SW 244 7,2 km/h (2 Bft)
20.09.2011 14:20 12,1 C 96 % 1093,7 hPa 0,0 mm W-SW 247 7,2 km/h (2 Bft)
20.09.2011 14:25 12,3 C 95 % 1093,7 hPa 0,0 mm W-SW 239 7,2 km/h (2 Bft)
20.09.2011 14:30 12,4 C 95 % 1093,5 hPa 0,0 mm W-SW 237 7,2 km/h (2 Bft)
20.09.2011 14:35 12,5 C 95 % 1093,7 hPa 0,0 mm W-SW 239 7,2 km/h (2 Bft)
20.09.2011 14:40 12,6 C 94 % 1093,6 hPa 0,0 mm W-SW 251 6,1 km/h (2 Bft)
20.09.2011 14:45 12,5 C 93 % 1093,6 hPa 0,0 mm W-SW 251 9,7 km/h (2 Bft)
20.09.2011 14:50 12,5 C 93 % 1093,8 hPa 0,0 mm W 263 9,7 km/h (2 Bft)
20.09.2011 14:55 12,5 C 93 % 1093,7 hPa 0,0 mm W 270 8,6 km/h (2 Bft)
20.09.2011 15:00 12,6 C 93 % 1093,6 hPa 0,0 mm W-SW 254 8,6 km/h (2 Bft)
20.09.2011 15:05 12,6 C 93 % 1093,8 hPa 0,0 mm W-SW 257 8,6 km/h (2 Bft)
20.09.2011 15:10 13,0 C 92 % 1093,7 hPa 0,0 mm W 273 5,0 km/h (1 Bft)
20.09.2011 15:15 13,1 C 92 % 1093,7 hPa 0,0 mm W 268 8,6 km/h (2 Bft)
20.09.2011 15:20 13,2 C 91 % 1093,9 hPa 0,3 mm W-SW 258 8,6 km/h (2 Bft)
20.09.2011 15:25 13,2 C 91 % 1093,7 hPa 0,0 mm W-SW 256 6,1 km/h (2 Bft)
20.09.2011 15:30 13,3 C 90 % 1093,5 hPa 0,0 mm W-NW 287 6,1 km/h (2 Bft)
20.09.2011 15:35 13,4 C 90 % 1093,1 hPa 0,0 mm NW 316 6,1 km/h (2 Bft)
20.09.2011 15:40 13,5 C 90 % 1093,3 hPa 0,0 mm N-NW 337 6,1 km/h (2 Bft)
20.09.2011 15:45 13,5 C 89 % 1092,8 hPa 0,0 mm NW 314 6,1 km/h (2 Bft)
20.09.2011 15:50 13,4 C 86 % 1093,1 hPa 0,0 mm W 261 5,0 km/h (1 Bft)
20.09.2011 15:55 13,4 C 88 % 1093,0 hPa 0,0 mm S-SO 160 3,6 km/h (1 Bft)
20.09.2011 16:00 13,4 C 88 % 1093,0 hPa 0,0 mm S-SO 154 3,6 km/h (1 Bft)
20.09.2011 16:05 13,4 C 88 % 1092,8 hPa 0,0 mm S 172 3,6 km/h (1 Bft)
20.09.2011 16:10 13,5 C 87 % 1093,1 hPa 0,0 mm S-SW 192 2,5 km/h (1 Bft)
20.09.2011 16:15 13,5 C 86 % 1093,1 hPa 0,0 mm W 276 5,0 km/h (1 Bft)
20.09.2011 16:20 13,4 C 87 % 1093,1 hPa 0,0 mm N-NW 328 5,0 km/h (1 Bft)
20.09.2011 16:25 13,5 C 86 % 1092,7 hPa 0,0 mm W 271 6,1 km/h (2 Bft)
20.09.2011 16:30 13,5 C 86 % 1093,0 hPa 0,0 mm W 262 6,1 km/h (2 Bft)
20.09.2011 16:35 13,4 C 85 % 1093,0 hPa 0,0 mm S-SO 151 5,0 km/h (1 Bft)
20.09.2011 16:40 13,3 C 86 % 1092,9 hPa 0,0 mm O-SO 114 5,0 km/h (1 Bft)
20.09.2011 16:45 13,3 C 86 % 1093,0 hPa 0,0 mm O-NO 57 3,6 km/h (1 Bft)
20.09.2011 16:50 13,3 C 86 % 1093,1 hPa 0,0 mm N 2 3,6 km/h (1 Bft)
20.09.2011 16:55 13,2 C 85 % 1093,0 hPa 0,0 mm N-NO 19 5,0 km/h (1 Bft)
20.09.2011 17:00 13,3 C 86 % 1093,0 hPa 0,0 mm N-NO 14 5,0 km/h (1 Bft)
20.09.2011 17:05 13,3 C 86 % 1092,8 hPa 0,0 mm N 1 5,0 km/h (1 Bft)
20.09.2011 17:10 13,2 C 84 % 1092,7 hPa 0,0 mm N 11 3,6 km/h (1 Bft)
20.09.2011 17:15 13,1 C 87 % 1092,9 hPa 0,0 mm O 82 6,1 km/h (2 Bft)
20.09.2011 17:20 12,9 C 88 % 1093,1 hPa 0,0 mm O 92 6,1 km/h (2 Bft)
20.09.2011 17:25 12,8 C 90 % 1092,9 hPa 0,0 mm O 91 6,1 km/h (2 Bft)
20.09.2011 17:30 12,8 C 91 % 1093,0 hPa 0,0 mm O-SO 112 6,1 km/h (2 Bft)
20.09.2011 17:35 12,7 C 91 % 1093,2 hPa 0,0 mm O-SO 116 6,1 km/h (2 Bft)
20.09.2011 17:40 12,6 C 91 % 1093,1 hPa 0,0 mm O-SO 105 6,1 km/h (2 Bft)
20.09.2011 17:45 12,6 C 91 % 1093,2 hPa 0,0 mm O 91 6,1 km/h (2 Bft)
20.09.2011 17:50 12,6 C 91 % 1093,2 hPa 0,0 mm O-NO 73 5,0 km/h (1 Bft)
20.09.2011 17:55 12,5 C 91 % 1093,3 hPa 0,0 mm NO 56 5,0 km/h (1 Bft)
20.09.2011 18:00 12,5 C 91 % 1093,3 hPa 0,0 mm NO 45 5,0 km/h (1 Bft)
20.09.2011 18:05 12,5 C 91 % 1093,2 hPa 0,0 mm NO 45 3,6 km/h (1 Bft)
20.09.2011 18:10 12,3 C 92 % 1093,4 hPa 0,0 mm NO 45 5,0 km/h (1 Bft)
20.09.2011 18:15 12,2 C 93 % 1093,3 hPa 0,0 mm O-NO 68 5,0 km/h (1 Bft)
20.09.2011 18:20 12,2 C 94 % 1093,6 hPa 0,0 mm O-SO 104 5,0 km/h (1 Bft)
20.09.2011 18:25 12,1 C 94 % 1093,4 hPa 0,0 mm O-SO 120 5,0 km/h (1 Bft)
20.09.2011 18:30 12,0 C 94 % 1093,6 hPa 0,0 mm O-SO 121 5,0 km/h (1 Bft)
20.09.2011 18:35 12,0 C 95 % 1093,6 hPa 0,0 mm O-SO 112 5,0 km/h (1 Bft)
20.09.2011 18:40 11,9 C 95 % 1093,5 hPa 0,0 mm O-NO 67 3,6 km/h (1 Bft)
20.09.2011 18:45 11,9 C 94 % 1093,7 hPa 0,0 mm N-NO 25 3,6 km/h (1 Bft)
20.09.2011 18:50 11,9 C 94 % 1093,7 hPa 0,0 mm N 1 2,5 km/h (1 Bft)
20.09.2011 18:55 11,9 C 95 % 1093,7 hPa 0,0 mm N 1 2,5 km/h (1 Bft)
20.09.2011 19:00 11,8 C 95 % 1093,8 hPa 0,0 mm N 0 0,0 km/h (0 Bft)
20.09.2011 19:05 11,8 C 95 % 1093,8 hPa 0,0 mm N 0 0,0 km/h (0 Bft)
20.09.2011 19:10 11,7 C 96 % 1093,8 hPa 0,0 mm N 0 0,0 km/h (0 Bft)
20.09.2011 19:15 11,6 C 97 % 1093,8 hPa 0,0 mm N 0 0,0 km/h (0 Bft)
20.09.2011 19:20 11,5 C 97 % 1094,0 hPa 0,0 mm S 181 2,5 km/h (1 Bft)
20.09.2011 19:25 11,5 C 97 % 1093,8 hPa 0,0 mm S 181 2,5 km/h (1 Bft)
20.09.2011 19:30 11,4 C 100 % 1093,8 hPa 0,0 mm S 181 1,1 km/h (1 Bft)
20.09.2011 19:35 11,4 C 100 % 1094,0 hPa 0,0 mm N 0 0,0 km/h (0 Bft)
20.09.2011 19:40 11,4 C 100 % 1093,9 hPa 0,0 mm N 0 0,0 km/h (0 Bft)
20.09.2011 19:45 11,3 C 99 % 1093,7 hPa 0,0 mm NO 45 2,5 km/h (1 Bft)
20.09.2011 19:50 11,2 C 99 % 1093,8 hPa 0,0 mm NO 45 3,6 km/h (1 Bft)
20.09.2011 19:55 11,2 C 99 % 1094,2 hPa 0,0 mm NO 45 3,6 km/h (1 Bft)
20.09.2011 20:00 11,1 C 99 % 1094,1 hPa 0,0 mm NO 46 3,6 km/h (1 Bft)
20.09.2011 20:05 11,1 C 99 % 1094,2 hPa 0,0 mm NO 45 1,1 km/h (1 Bft)
20.09.2011 20:10 11,1 C 99 % 1094,3 hPa 0,0 mm N 0 0,0 km/h (0 Bft)
20.09.2011 20:15 11,0 C 99 % 1094,4 hPa 0,0 mm N 0 0,0 km/h (0 Bft)
20.09.2011 20:20 11,0 C 99 % 1094,4 hPa 0,0 mm N 0 0,0 km/h (0 Bft)
20.09.2011 20:25 10,9 C 99 % 1094,5 hPa 0,0 mm N 0 0,0 km/h (0 Bft)
20.09.2011 20:30 10,9 C 99 % 1094,6 hPa 0,0 mm N 0 0,0 km/h (0 Bft)
20.09.2011 20:35 10,9 C 99 % 1094,6 hPa 0,0 mm N 0 0,0 km/h (0 Bft)
20.09.2011 20:40 10,8 C 99 % 1094,6 hPa 0,0 mm N 0 0,0 km/h (0 Bft)
20.09.2011 20:45 10,8 C 99 % 1094,5 hPa 0,0 mm N 0 0,0 km/h (0 Bft)
20.09.2011 20:50 10,8 C 99 % 1094,6 hPa 0,0 mm N 0 0,0 km/h (0 Bft)
20.09.2011 20:55 10,8 C 99 % 1094,5 hPa 0,0 mm N 0 0,0 km/h (0 Bft)
20.09.2011 21:00 10,8 C 99 % 1094,5 hPa 0,0 mm N 0 0,0 km/h (0 Bft)
20.09.2011 21:05 10,8 C 99 % 1094,5 hPa 0,0 mm N 0 0,0 km/h (0 Bft)
20.09.2011 21:10 10,8 C 99 % 1094,5 hPa 0,0 mm N 0 0,0 km/h (0 Bft)
20.09.2011 21:15 10,8 C 99 % 1094,6 hPa 0,0 mm N 0 0,0 km/h (0 Bft)
20.09.2011 21:20 10,8 C 99 % 1094,7 hPa 0,0 mm N 0 0,0 km/h (0 Bft)
20.09.2011 21:25 10,8 C 99 % 1094,7 hPa 0,0 mm O 90 1,1 km/h (1 Bft)
20.09.2011 21:30 10,7 C 99 % 1094,6 hPa 0,0 mm O 90 1,1 km/h (1 Bft)
20.09.2011 21:35 10,7 C 99 % 1094,5 hPa 0,0 mm N 0 0,0 km/h (0 Bft)
20.09.2011 21:40 10,7 C 99 % 1094,7 hPa 0,0 mm N 0 0,0 km/h (0 Bft)
20.09.2011 21:45 10,7 C 99 % 1094,6 hPa 0,0 mm N 0 0,0 km/h (0 Bft)
20.09.2011 21:50 10,7 C 99 % 1094,8 hPa 0,0 mm N 0 0,0 km/h (0 Bft)
20.09.2011 21:55 10,6 C 99 % 1094,5 hPa 0,0 mm N 0 0,0 km/h (0 Bft)
20.09.2011 22:00 10,6 C 99 % 1094,5 hPa 0,0 mm N 0 0,0 km/h (0 Bft)
20.09.2011 22:05 10,6 C 99 % 1094,4 hPa 0,0 mm N 0 0,0 km/h (0 Bft)
20.09.2011 22:10 10,6 C 99 % 1094,3 hPa 0,0 mm N 0 0,0 km/h (0 Bft)
20.09.2011 22:15 10,6 C 99 % 1094,5 hPa 0,0 mm N 0 0,0 km/h (0 Bft)
20.09.2011 22:20 10,6 C 99 % 1094,5 hPa 0,0 mm N 0 0,0 km/h (0 Bft)
20.09.2011 22:25 10,6 C 99 % 1094,3 hPa 0,0 mm N 0 0,0 km/h (0 Bft)
20.09.2011 22:30 10,6 C 99 % 1094,3 hPa 0,0 mm N 0 0,0 km/h (0 Bft)
20.09.2011 22:35 10,6 C 99 % 1094,1 hPa 0,0 mm N 0 0,0 km/h (0 Bft)
20.09.2011 22:40 10,6 C 99 % 1094,1 hPa 0,0 mm N 0 0,0 km/h (0 Bft)
20.09.2011 22:45 10,6 C 99 % 1094,0 hPa 0,0 mm N 0 0,0 km/h (0 Bft)
20.09.2011 22:50 10,6 C 99 % 1094,0 hPa 0,0 mm N 0 0,0 km/h (0 Bft)
20.09.2011 22:55 10,5 C 99 % 1094,1 hPa 0,0 mm N 0 0,0 km/h (0 Bft)
20.09.2011 23:00 10,5 C 99 % 1094,1 hPa 0,0 mm N 0 0,0 km/h (0 Bft)
20.09.2011 23:05 10,5 C 99 % 1094,0 hPa 0,0 mm N 0 0,0 km/h (0 Bft)
20.09.2011 23:10 10,4 C 99 % 1094,0 hPa 0,0 mm N 1 2,5 km/h (1 Bft)
20.09.2011 23:15 10,3 C 99 % 1093,9 hPa 0,0 mm O-SO 109 2,5 km/h (1 Bft)
20.09.2011 23:20 10,2 C 99 % 1093,8 hPa 0,0 mm S-SO 161 2,5 km/h (1 Bft)
20.09.2011 23:25 10,1 C 99 % 1093,7 hPa 0,0 mm S 181 2,5 km/h (1 Bft)
20.09.2011 23:30 10,1 C 99 % 1093,7 hPa 0,0 mm N 1 3,6 km/h (1 Bft)
20.09.2011 23:35 10,0 C 99 % 1093,7 hPa 0,0 mm N 1 3,6 km/h (1 Bft)
20.09.2011 23:40 9,7 C 99 % 1093,9 hPa 0,0 mm N 1 3,6 km/h (1 Bft)
20.09.2011 23:45 9,6 C 99 % 1093,8 hPa 0,0 mm S 181 1,1 km/h (1 Bft)
20.09.2011 23:50 9,5 C 99 % 1093,7 hPa 0,0 mm N 0 0,0 km/h (0 Bft)
20.09.2011 23:55 9,2 C 99 % 1093,7 hPa 0,0 mm N 0 0,0 km/h (0 Bft)
_ Min-Zeit 00:00 17:10 00:00 - - - 07:10
Minimum _ 6,4 C 84 % 1089,9 hPa - - - 0,0 km/h (0 Bft)
_ Max-Zeit 15:40 13:25 10:20 00:10 - - 13:35
Maximum _ 13,5 C 100 % 1095,0 hPa 0,3 mm - - 9,7 km/h
W-SW (2 Bft)
Durchschnitt _ 9,7 C 97 % 1093,3 hPa #5,7 mm W - 3,7 km/h (1 Bft)